カタログに戻る

CZ-6A DEB

運用中SSO
NORAD 56682·DEBRIS·🇨🇳 China

打ち上げ Nov 11, 2022 から Taiyuan Satellite Launch Center

Loading…

次のパス (今後24時間)

TLE

最新Source: Space-Track

元期: Sep 14, 2026, 10:22 UTC

1 56682U 22151AHJ 26257.43248742  .00000608  00000-0  34747-3 0  9996
2 56682  98.8317 255.8828 0045220  66.2468 294.3437 14.12817389172723

AllMySatでCZ-6A DEBをリアルタイム追跡

Download on the App Store